Location: Balagbag Mahabang Kahoy
(14.1562°N, 120.9200°E)
Time: 04:55:07
(UTC+00:00)

Meteor 2-10 Rocket - Pass Details

Date: 16 January 2026
Orbit: 733 x 881 km, 81.2° (Epoch: 14 February)

Event Time Altitude Azimuth Distance (km) Brightness Sun altitude
Rises 21:42:29 0° 212° (SSW) 3,148 6.6 -10.4°
Reaches altitude 10° 21:45:12 10° 226° (SW) 2,230 5.7 -9.8°
Maximum altitude 21:49:09 24° 279° (W) 1,505 4.5 -8.9°
Drops below altitude 10° 21:53:12 10° 332° (NNW) 2,266 5.5 -8.0°
Sets 21:56:00 0° 346° (NNW) 3,211 6.4 -7.3°
